This is the latest recevied weather packets stored in our database for station/object N3LF. If no packets are shown the sender has not sent any weather packets the latest 10 day(s).
| Time | Temp. | Humidity | Pressure | Rain* | Wind** | Luminosity | Snow |
|---|---|---|---|---|---|---|---|
| 1788282555 | 35° C | 55% | 1022 hPa | 0 mm | - | 193 W/m² | - |
| 1788282250 | 34.44° C | 55% | 1022.2 hPa | 0 mm | - | 692 W/m² | - |
| 1788281950 | 35° C | 54% | 1022.3 hPa | 0 mm | - | 675 W/m² | - |
| 1788281649 | 33.89° C | 56% | 1022.1 hPa | 0 mm | - | 669 W/m² | - |
| 1788281346 | 34.44° C | 57% | 1022.3 hPa | 0 mm | - | 652 W/m² | - |
| 1788281047 | 34.44° C | 57% | 1022.3 hPa | 0 mm | - | 642 W/m² | - |
| 1788280741 | 35° C | 59% | 1022.5 hPa | 0 mm | - | 633 W/m² | - |
| 1788280436 | 33.33° C | 62% | 1022.4 hPa | 0 mm | - | 632 W/m² | - |
| 1788280131 | 33.89° C | 59% | 1022.4 hPa | 0 mm | - | 618 W/m² | - |
| 1788279830 | 33.89° C | 60% | 1022.5 hPa | 0 mm | - | 617 W/m² | - |
| 1788279530 | 33.89° C | 61% | 1022.4 hPa | 0 mm | - | 609 W/m² | - |
| 1788279229 | 33.89° C | 59% | 1022.2 hPa | 0 mm | - | 602 W/m² | - |
| 1788278925 | 32.78° C | 62% | 1022.4 hPa | 0 mm | - | 597 W/m² | - |
| 1788278621 | 33.89° C | 60% | 1022.4 hPa | 0 mm | - | 590 W/m² | - |
| 1788278320 | 32.78° C | 63% | 1022.5 hPa | 0 mm | - | 582 W/m² | - |
| 1788278015 | 32.78° C | 63% | 1022.6 hPa | 0 mm | - | 575 W/m² | - |
| 1788277712 | 33.33° C | 62% | 1022.7 hPa | 0 mm | - | 565 W/m² | - |
| 1788277411 | 32.78° C | 64% | 1022.6 hPa | 0 mm | - | 557 W/m² | - |
| 1788277111 | 32.22° C | 64% | 1022.7 hPa | 0 mm | - | 548 W/m² | - |
| 1788276806 | 32.78° C | 65% | 1022.5 hPa | 0 mm | - | 538 W/m² | - |
| 1788276505 | 32.78° C | 64% | 1022.8 hPa | 0 mm | - | 527 W/m² | - |
| 1788276204 | 32.22° C | 66% | 1022.6 hPa | 0 mm | - | 521 W/m² | - |
| 1788275900 | 32.78° C | 66% | 1022.6 hPa | 0 mm | - | 508 W/m² | - |
| 1788275594 | 32.22° C | 66% | 1022.7 hPa | 0 mm | - | 496 W/m² | - |
| 1788275294 | 32.78° C | 67% | 1022.4 hPa | 0 mm | - | 485 W/m² | - |
* Rain latest hour (hover to see other rain measurements)
** Current wind speed in m/s (hover to see current wind gust speed)